Time,TemperatureF,DewpointF,PressureIn,WindDirection,WindDirectionDegrees,WindSpeedMPH,WindSpeedGustMPH,Humidity,HourlyPrecipIn,Conditions,Clouds,dailyrainin,SoftwareType,DateUTC
2013-06-09 00:00:00,73.9,51.8,29.12,ENE,67,0.0,0.0,44,0.00,,,0.00,WeatherTracker,2013-06-09 05:00:00,
2013-06-09 00:05:00,73.8,51.8,29.12,ENE,67,0.0,0.0,44,0.00,,,0.00,WeatherTracker,2013-06-09 05:05:00,
2013-06-09 00:10:00,73.8,51.8,29.15,ENE,67,0.0,0.0,44,0.00,,,0.00,WeatherTracker,2013-06-09 05:10:00,
2013-06-09 00:15:00,73.8,51.8,29.15,ENE,67,0.0,0.0,44,0.00,,,0.00,WeatherTracker,2013-06-09 05:15:00,
2013-06-09 00:20:00,73.8,51.8,29.15,ENE,67,0.0,0.0,45,0.00,,,0.00,WeatherTracker,2013-06-09 05:20:00,
2013-06-09 00:30:00,73.6,51.8,29.12,ENE,67,0.0,0.0,45,0.00,,,0.00,WeatherTracker,2013-06-09 05:30:00,
2013-06-09 00:35:00,73.4,51.8,29.12,ENE,67,0.0,0.0,45,0.00,,,0.00,WeatherTracker,2013-06-09 05:35:00,
2013-06-09 00:45:00,73.4,51.8,29.12,ENE,67,0.0,0.0,45,0.00,,,0.00,WeatherTracker,2013-06-09 05:45:00,
2013-06-09 00:50:00,73.4,51.8,29.12,ENE,67,0.0,0.0,45,0.00,,,0.00,WeatherTracker,2013-06-09 05:50:00,
2013-06-09 01:00:00,73.4,51.8,29.12,ENE,67,0.0,0.0,45,0.00,,,0.00,WeatherTracker,2013-06-09 06:00:00,
2013-06-09 01:05:00,73.4,51.8,29.12,ENE,67,0.0,0.0,45,0.00,,,0.00,WeatherTracker,2013-06-09 06:05:00,
2013-06-09 01:10:00,73.2,51.8,29.12,ENE,67,0.0,0.0,45,0.00,,,0.00,WeatherTracker,2013-06-09 06:10:00,
2013-06-09 01:15:00,73.2,51.8,29.12,ENE,67,0.0,0.0,46,0.00,,,0.00,WeatherTracker,2013-06-09 06:15:00,
2013-06-09 01:20:00,73.2,51.8,29.12,ENE,67,0.0,0.0,46,0.00,,,0.00,WeatherTracker,2013-06-09 06:20:00,
2013-06-09 01:25:00,73.2,51.8,29.12,ENE,67,0.0,0.0,46,0.00,,,0.00,WeatherTracker,2013-06-09 06:25:00,
2013-06-09 01:35:00,73.0,51.8,29.12,ENE,67,0.0,0.0,46,0.00,,,0.00,WeatherTracker,2013-06-09 06:35:00,
2013-06-09 01:40:00,73.0,51.8,29.09,ENE,67,0.0,0.0,46,0.00,,,0.00,WeatherTracker,2013-06-09 06:40:00,
2013-06-09 01:50:00,72.9,51.8,29.09,ENE,67,0.0,0.0,47,0.00,,,0.00,WeatherTracker,2013-06-09 06:50:00,
2013-06-09 01:55:00,72.7,51.8,29.03,ENE,67,0.0,0.0,47,0.00,,,0.00,WeatherTracker,2013-06-09 06:55:00,
2013-06-09 02:00:00,72.5,51.8,29.03,ENE,67,0.0,0.0,47,0.00,,,0.00,WeatherTracker,2013-06-09 07:00:00,
2013-06-09 02:05:00,72.5,51.8,29.03,ENE,67,0.0,0.0,47,0.00,,,0.00,WeatherTracker,2013-06-09 07:05:00,
2013-06-09 02:15:00,72.7,51.8,29.06,ENE,67,0.0,0.0,46,0.00,,,0.00,WeatherTracker,2013-06-09 07:15:00,
2013-06-09 02:25:00,72.9,50.0,29.06,ENE,67,0.0,0.0,45,0.00,,,0.00,WeatherTracker,2013-06-09 07:25:00,
2013-06-09 02:30:00,72.9,50.0,29.06,ENE,67,0.0,0.0,45,0.00,,,0.00,WeatherTracker,2013-06-09 07:30:00,
2013-06-09 02:35:00,72.9,50.0,29.06,ENE,67,0.0,0.0,45,0.00,,,0.00,WeatherTracker,2013-06-09 07:35:00,
2013-06-09 02:40:00,72.9,50.0,29.09,ENE,67,0.0,0.0,45,0.00,,,0.00,WeatherTracker,2013-06-09 07:40:00,
2013-06-09 02:45:00,72.7,50.0,29.09,ENE,67,0.0,0.0,45,0.00,,,0.00,WeatherTracker,2013-06-09 07:45:00,
2013-06-09 02:50:00,72.7,50.0,29.09,ENE,67,0.0,0.0,45,0.00,,,0.00,WeatherTracker,2013-06-09 07:50:00,
2013-06-09 03:00:00,72.5,50.0,29.09,ENE,67,0.0,0.0,45,0.00,,,0.00,WeatherTracker,2013-06-09 08:00:00,
2013-06-09 03:05:00,72.5,50.0,29.09,ENE,67,0.0,0.0,45,0.00,,,0.00,WeatherTracker,2013-06-09 08:05:00,
2013-06-09 03:10:00,72.3,50.0,29.09,ENE,67,0.0,0.0,45,0.00,,,0.00,WeatherTracker,2013-06-09 08:10:00,
2013-06-09 03:15:00,72.3,50.0,29.09,ENE,67,0.0,0.0,45,0.00,,,0.00,WeatherTracker,2013-06-09 08:15:00,
2013-06-09 03:20:00,72.3,50.0,29.09,ENE,67,0.0,0.0,45,0.00,,,0.00,WeatherTracker,2013-06-09 08:20:00,
2013-06-09 03:25:00,72.3,50.0,29.06,ENE,67,0.0,0.0,45,0.00,,,0.00,WeatherTracker,2013-06-09 08:25:00,
2013-06-09 03:35:00,72.1,50.0,29.06,ENE,67,0.0,0.0,46,0.00,,,0.00,WeatherTracker,2013-06-09 08:35:00,
2013-06-09 03:40:00,72.1,50.0,29.06,ENE,67,0.0,0.0,46,0.00,,,0.00,WeatherTracker,2013-06-09 08:40:00,
2013-06-09 03:45:00,72.1,50.0,29.06,ENE,67,0.0,0.0,46,0.00,,,0.00,WeatherTracker,2013-06-09 08:45:00,
2013-06-09 03:50:00,72.1,50.0,29.06,ENE,67,0.0,0.0,46,0.00,,,0.00,WeatherTracker,2013-06-09 08:50:00,
2013-06-09 03:55:00,72.0,50.0,29.06,ENE,67,0.0,0.0,46,0.00,,,0.00,WeatherTracker,2013-06-09 08:55:00,
2013-06-09 04:00:00,72.0,50.0,29.06,ENE,67,0.0,0.0,46,0.00,,,0.00,WeatherTracker,2013-06-09 09:00:00,
2013-06-09 04:10:00,72.0,50.0,29.06,ENE,67,0.0,0.0,46,0.00,,,0.00,WeatherTracker,2013-06-09 09:10:00,
2013-06-09 04:15:00,71.8,50.0,29.06,ENE,67,0.0,0.0,46,0.00,,,0.00,WeatherTracker,2013-06-09 09:15:00,
2013-06-09 04:25:00,71.8,50.0,29.06,ENE,67,0.0,0.0,46,0.00,,,0.00,WeatherTracker,2013-06-09 09:25:00,
2013-06-09 04:30:00,71.8,50.0,29.06,ENE,67,0.0,0.0,47,0.00,,,0.00,WeatherTracker,2013-06-09 09:30:00,
2013-06-09 04:35:00,71.6,50.0,29.06,ENE,67,0.0,0.0,47,0.00,,,0.00,WeatherTracker,2013-06-09 09:35:00,
2013-06-09 04:40:00,71.6,50.0,29.03,ENE,67,0.0,0.0,47,0.00,,,0.00,WeatherTracker,2013-06-09 09:40:00,
2013-06-09 04:45:00,71.6,50.0,29.03,ENE,67,0.0,0.0,47,0.00,,,0.00,WeatherTracker,2013-06-09 09:45:00,
2013-06-09 04:55:00,71.6,50.0,29.06,ENE,67,0.0,0.0,47,0.00,,,0.00,WeatherTracker,2013-06-09 09:55:00,
2013-06-09 05:00:00,71.6,50.0,29.06,ENE,67,0.0,0.0,47,0.00,,,0.00,WeatherTracker,2013-06-09 10:00:00,
2013-06-09 05:10:00,71.4,51.8,29.06,ENE,67,0.0,0.0,48,0.00,,,0.00,WeatherTracker,2013-06-09 10:10:00,
2013-06-09 05:15:00,71.2,50.0,29.06,ENE,67,0.0,0.0,48,0.00,,,0.00,WeatherTracker,2013-06-09 10:15:00,
2013-06-09 05:25:00,71.1,50.0,29.09,ENE,67,0.0,0.0,48,0.00,,,0.00,WeatherTracker,2013-06-09 10:25:00,
2013-06-09 05:30:00,70.9,51.8,29.09,ENE,67,0.0,0.0,49,0.00,,,0.00,WeatherTracker,2013-06-09 10:30:00,
2013-06-09 05:35:00,70.7,51.8,29.09,ENE,67,0.0,0.0,49,0.00,,,0.00,WeatherTracker,2013-06-09 10:35:00,
2013-06-09 05:40:00,70.5,50.0,29.09,ENE,67,0.0,0.0,49,0.00,,,0.00,WeatherTracker,2013-06-09 10:40:00,
2013-06-09 05:45:00,70.3,50.0,29.09,ENE,67,0.0,0.0,49,0.00,,,0.00,WeatherTracker,2013-06-09 10:45:00,
2013-06-09 05:50:00,70.2,51.8,29.09,ENE,67,0.0,0.0,50,0.00,,,0.00,WeatherTracker,2013-06-09 10:50:00,
2013-06-09 05:55:00,70.2,51.8,29.09,ENE,67,0.0,0.0,50,0.00,,,0.00,WeatherTracker,2013-06-09 10:55:00,
2013-06-09 06:00:00,70.0,50.0,29.09,ENE,67,0.0,0.0,50,0.00,,,0.00,WeatherTracker,2013-06-09 11:00:00,
2013-06-09 06:05:00,69.8,50.0,29.09,ENE,67,0.0,0.0,50,0.00,,,0.00,WeatherTracker,2013-06-09 11:05:00,
2013-06-09 06:10:00,69.6,50.0,29.12,ENE,67,0.0,0.0,50,0.00,,,0.00,WeatherTracker,2013-06-09 11:10:00,
2013-06-09 06:15:00,69.4,50.0,29.12,ENE,67,0.0,0.0,51,0.00,,,0.00,WeatherTracker,2013-06-09 11:15:00,
2013-06-09 06:20:00,69.4,50.0,29.12,ENE,67,0.0,0.0,51,0.00,,,0.00,WeatherTracker,2013-06-09 11:20:00,
2013-06-09 06:25:00,69.4,51.8,29.09,ENE,67,0.0,0.0,52,0.00,,,0.00,WeatherTracker,2013-06-09 11:25:00,
2013-06-09 06:30:00,69.3,51.8,29.09,ENE,67,0.0,0.0,52,0.00,,,0.00,WeatherTracker,2013-06-09 11:30:00,
2013-06-09 06:35:00,69.1,51.8,29.09,ENE,67,0.0,0.0,52,0.00,,,0.00,WeatherTracker,2013-06-09 11:35:00,
2013-06-09 06:40:00,68.9,51.8,29.09,ENE,67,0.0,0.0,53,0.00,,,0.00,WeatherTracker,2013-06-09 11:40:00,
2013-06-09 06:45:00,68.9,51.8,29.09,ENE,67,0.0,0.0,53,0.00,,,0.00,WeatherTracker,2013-06-09 11:45:00,
2013-06-09 06:55:00,69.1,51.8,29.12,ENE,67,0.0,0.0,54,0.00,,,0.00,WeatherTracker,2013-06-09 11:55:00,
2013-06-09 07:00:00,69.4,51.8,29.12,ENE,67,0.0,0.0,54,0.00,,,0.00,WeatherTracker,2013-06-09 12:00:00,
2013-06-09 07:05:00,69.6,53.6,29.12,ENE,67,0.0,0.0,54,0.00,,,0.00,WeatherTracker,2013-06-09 12:05:00,
2013-06-09 07:10:00,69.8,53.6,29.09,ENE,67,0.0,0.0,54,0.00,,,0.00,WeatherTracker,2013-06-09 12:10:00,
2013-06-09 07:15:00,70.0,53.6,29.09,ENE,67,0.0,0.0,54,0.00,,,0.00,WeatherTracker,2013-06-09 12:15:00,
2013-06-09 07:20:00,70.2,53.6,29.09,ENE,67,0.0,0.0,54,0.00,,,0.00,WeatherTracker,2013-06-09 12:20:00,
2013-06-09 07:25:00,70.5,53.6,29.09,ENE,67,0.0,0.0,54,0.00,,,0.00,WeatherTracker,2013-06-09 12:25:00,
2013-06-09 07:30:00,70.7,53.6,29.09,ENE,67,0.0,0.0,54,0.00,,,0.00,WeatherTracker,2013-06-09 12:30:00,
2013-06-09 07:35:00,70.7,53.6,29.09,ENE,67,0.0,0.0,54,0.00,,,0.00,WeatherTracker,2013-06-09 12:35:00,
2013-06-09 07:40:00,70.9,53.6,29.09,ENE,67,0.0,0.0,54,0.00,,,0.00,WeatherTracker,2013-06-09 12:40:00,
2013-06-09 07:45:00,71.1,53.6,29.09,ENE,67,0.0,0.0,54,0.00,,,0.00,WeatherTracker,2013-06-09 12:45:00,
2013-06-09 07:50:00,71.2,53.6,29.09,ENE,67,0.0,0.0,54,0.00,,,0.00,WeatherTracker,2013-06-09 12:50:00,
2013-06-09 07:55:00,71.4,55.4,29.12,ENE,67,0.0,0.0,54,0.00,,,0.00,WeatherTracker,2013-06-09 12:55:00,
2013-06-09 08:00:00,71.6,53.6,29.12,ENE,67,0.0,0.0,53,0.00,,,0.00,WeatherTracker,2013-06-09 13:00:00,
2013-06-09 08:05:00,71.6,53.6,29.12,ENE,67,0.0,0.0,53,0.00,,,0.00,WeatherTracker,2013-06-09 13:05:00,
2013-06-09 08:10:00,71.8,53.6,29.12,ENE,67,0.0,0.0,53,0.00,,,0.00,WeatherTracker,2013-06-09 13:10:00,
2013-06-09 08:20:00,72.3,53.6,29.12,ENE,67,0.0,0.0,52,0.00,,,0.00,WeatherTracker,2013-06-09 13:20:00,
2013-06-09 08:25:00,72.5,55.4,29.12,ENE,67,0.0,0.0,52,0.00,,,0.00,WeatherTracker,2013-06-09 13:25:00,
2013-06-09 08:30:00,72.7,55.4,29.12,ENE,67,0.0,0.0,52,0.00,,,0.00,WeatherTracker,2013-06-09 13:30:00,
2013-06-09 08:35:00,72.9,55.4,29.12,ENE,67,0.0,0.0,52,0.00,,,0.00,WeatherTracker,2013-06-09 13:35:00,
2013-06-09 08:40:00,73.2,55.4,29.15,ENE,67,0.0,0.0,51,0.00,,,0.00,WeatherTracker,2013-06-09 13:40:00,
2013-06-09 08:50:00,73.8,55.4,29.15,ENE,67,0.0,0.0,50,0.00,,,0.00,WeatherTracker,2013-06-09 13:50:00,
2013-06-09 08:55:00,73.9,53.6,29.15,ENE,67,0.0,0.0,49,0.00,,,0.00,WeatherTracker,2013-06-09 13:55:00,
2013-06-09 09:00:00,74.3,55.4,29.15,ENE,67,0.0,0.0,49,0.00,,,0.00,WeatherTracker,2013-06-09 14:00:00,
2013-06-09 09:05:00,74.5,53.6,29.15,ENE,67,0.0,0.0,48,0.00,,,0.00,WeatherTracker,2013-06-09 14:05:00,
2013-06-09 09:10:00,74.8,53.6,29.15,ENE,67,0.0,0.0,48,0.00,,,0.00,WeatherTracker,2013-06-09 14:10:00,
2013-06-09 09:15:00,75.0,53.6,29.15,ENE,67,0.0,0.0,47,0.00,,,0.00,WeatherTracker,2013-06-09 14:15:00,
2013-06-09 09:20:00,75.4,53.6,29.15,ENE,67,0.0,0.0,47,0.00,,,0.00,WeatherTracker,2013-06-09 14:20:00,
2013-06-09 09:25:00,75.6,53.6,29.15,ENE,67,0.0,0.0,46,0.00,,,0.00,WeatherTracker,2013-06-09 14:25:00,
2013-06-09 09:35:00,76.1,53.6,29.15,ENE,67,0.0,0.0,45,0.00,,,0.00,WeatherTracker,2013-06-09 14:35:00,
2013-06-09 09:40:00,76.5,53.6,29.18,ENE,67,0.0,0.0,45,0.00,,,0.00,WeatherTracker,2013-06-09 14:40:00,
2013-06-09 09:50:00,77.0,53.6,29.18,ENE,67,0.0,0.0,44,0.00,,,0.00,WeatherTracker,2013-06-09 14:50:00,
2013-06-09 09:55:00,77.4,55.4,29.18,ENE,67,0.0,0.0,44,0.00,,,0.00,WeatherTracker,2013-06-09 14:55:00,
2013-06-09 10:00:00,77.7,55.4,29.18,ENE,67,0.0,0.0,44,0.00,,,0.00,WeatherTracker,2013-06-09 15:00:00,
2013-06-09 10:05:00,77.9,55.4,29.18,ENE,67,0.0,0.0,44,0.00,,,0.00,WeatherTracker,2013-06-09 15:05:00,
2013-06-09 10:10:00,78.1,53.6,29.18,ENE,67,0.0,0.0,43,0.00,,,0.00,WeatherTracker,2013-06-09 15:10:00,
2013-06-09 10:15:00,78.3,53.6,29.18,ENE,67,0.0,0.0,43,0.00,,,0.00,WeatherTracker,2013-06-09 15:15:00,
2013-06-09 10:20:00,78.4,53.6,29.18,ENE,67,0.0,0.0,43,0.00,,,0.00,WeatherTracker,2013-06-09 15:20:00,
2013-06-09 10:25:00,78.4,53.6,29.18,ENE,67,0.0,0.0,43,0.00,,,0.00,WeatherTracker,2013-06-09 15:25:00,
2013-06-09 10:30:00,78.8,53.6,29.18,ENE,67,0.0,0.0,42,0.00,,,0.00,WeatherTracker,2013-06-09 15:30:00,
2013-06-09 10:35:00,79.2,55.4,29.18,ENE,67,0.0,0.0,42,0.00,,,0.00,WeatherTracker,2013-06-09 15:35:00,
2013-06-09 10:40:00,79.2,53.6,29.18,ENE,67,0.0,0.0,41,0.00,,,0.00,WeatherTracker,2013-06-09 15:40:00,
2013-06-09 10:45:00,79.3,53.6,29.18,ENE,67,0.0,0.0,41,0.00,,,0.00,WeatherTracker,2013-06-09 15:45:00,
2013-06-09 10:50:00,79.7,55.4,29.18,ENE,67,0.0,0.0,41,0.00,,,0.00,WeatherTracker,2013-06-09 15:50:00,
2013-06-09 10:55:00,79.9,55.4,29.18,ENE,67,0.0,0.0,41,0.00,,,0.00,WeatherTracker,2013-06-09 15:55:00,
2013-06-09 11:00:00,80.1,55.4,29.18,ENE,67,0.0,0.0,41,0.00,,,0.00,WeatherTracker,2013-06-09 16:00:00,
2013-06-09 11:10:00,80.8,55.4,29.18,ENE,67,0.0,0.0,40,0.00,,,0.00,WeatherTracker,2013-06-09 16:10:00,
2013-06-09 11:15:00,80.8,55.4,29.18,ENE,67,0.0,0.0,40,0.00,,,0.00,WeatherTracker,2013-06-09 16:15:00,
2013-06-09 11:20:00,80.8,55.4,29.18,ENE,67,0.0,0.0,40,0.00,,,0.00,WeatherTracker,2013-06-09 16:20:00,
2013-06-09 11:25:00,81.0,55.4,29.18,ENE,67,0.0,0.0,39,0.00,,,0.00,WeatherTracker,2013-06-09 16:25:00,
2013-06-09 11:30:00,81.1,55.4,29.18,ENE,67,0.0,0.0,39,0.00,,,0.00,WeatherTracker,2013-06-09 16:30:00,
2013-06-09 11:35:00,81.1,53.6,29.18,ENE,67,0.0,0.0,38,0.00,,,0.00,WeatherTracker,2013-06-09 16:35:00,
2013-06-09 11:45:00,81.3,53.6,29.18,ENE,67,0.0,0.0,37,0.00,,,0.00,WeatherTracker,2013-06-09 16:45:00,
2013-06-09 11:50:00,81.5,53.6,29.18,ENE,67,0.0,0.0,37,0.00,,,0.00,WeatherTracker,2013-06-09 16:50:00,
2013-06-09 11:55:00,81.7,53.6,29.18,ENE,67,0.0,0.0,36,0.00,,,0.00,WeatherTracker,2013-06-09 16:55:00,
2013-06-09 12:00:00,81.9,51.8,29.18,ENE,67,0.0,0.0,35,0.00,,,0.00,WeatherTracker,2013-06-09 17:00:00,
2013-06-09 12:05:00,82.2,51.8,29.18,ENE,67,0.0,0.0,35,0.00,,,0.00,WeatherTracker,2013-06-09 17:05:00,
2013-06-09 12:15:00,82.4,51.8,29.18,ENE,67,0.0,0.0,34,0.00,,,0.00,WeatherTracker,2013-06-09 17:15:00,
2013-06-09 12:20:00,82.8,51.8,29.18,ENE,67,0.0,0.0,33,0.00,,,0.00,WeatherTracker,2013-06-09 17:20:00,
2013-06-09 12:25:00,83.1,51.8,29.18,ENE,67,0.0,0.0,33,0.00,,,0.00,WeatherTracker,2013-06-09 17:25:00,
2013-06-09 12:30:00,83.3,51.8,29.18,ENE,67,0.0,0.0,33,0.00,,,0.00,WeatherTracker,2013-06-09 17:30:00,
2013-06-09 12:35:00,83.5,51.8,29.18,ENE,67,0.0,0.0,33,0.00,,,0.00,WeatherTracker,2013-06-09 17:35:00,
2013-06-09 12:40:00,83.7,51.8,29.15,ENE,67,0.0,0.0,32,0.00,,,0.00,WeatherTracker,2013-06-09 17:40:00,
2013-06-09 12:45:00,83.8,51.8,29.15,ENE,67,0.0,0.0,32,0.00,,,0.00,WeatherTracker,2013-06-09 17:45:00,
2013-06-09 12:55:00,84.2,51.8,29.15,ENE,67,0.0,0.0,31,0.00,,,0.00,WeatherTracker,2013-06-09 17:55:00,
2013-06-09 13:00:00,84.4,51.8,29.15,ENE,67,0.0,0.0,31,0.00,,,0.00,WeatherTracker,2013-06-09 18:00:00,
2013-06-09 13:05:00,84.7,51.8,29.15,ENE,67,0.0,0.0,31,0.00,,,0.00,WeatherTracker,2013-06-09 18:05:00,
2013-06-09 13:10:00,84.9,51.8,29.15,ENE,67,0.0,0.0,31,0.00,,,0.00,WeatherTracker,2013-06-09 18:10:00,
2013-06-09 13:20:00,85.1,50.0,29.15,ENE,67,0.0,0.0,30,0.00,,,0.00,WeatherTracker,2013-06-09 18:20:00,
2013-06-09 13:25:00,85.3,50.0,29.15,ENE,67,0.0,0.0,30,0.00,,,0.00,WeatherTracker,2013-06-09 18:25:00,
2013-06-09 13:30:00,85.3,50.0,29.15,ENE,67,0.0,0.0,30,0.00,,,0.00,WeatherTracker,2013-06-09 18:30:00,
2013-06-09 13:40:00,85.6,50.0,29.15,ENE,67,0.0,0.0,30,0.00,,,0.00,WeatherTracker,2013-06-09 18:40:00,
2013-06-09 13:45:00,85.8,50.0,29.15,ENE,67,0.0,0.0,30,0.00,,,0.00,WeatherTracker,2013-06-09 18:45:00,
2013-06-09 13:50:00,86.0,50.0,29.15,ENE,67,0.0,0.0,29,0.00,,,0.00,WeatherTracker,2013-06-09 18:50:00,
2013-06-09 13:55:00,86.2,50.0,29.15,ENE,67,0.0,0.0,29,0.00,,,0.00,WeatherTracker,2013-06-09 18:55:00,
2013-06-09 14:00:00,86.0,50.0,29.15,ENE,67,0.0,0.0,28,0.00,,,0.00,WeatherTracker,2013-06-09 19:00:00,
2013-06-09 14:05:00,86.2,50.0,29.15,ENE,67,0.0,0.0,28,0.00,,,0.00,WeatherTracker,2013-06-09 19:05:00,
2013-06-09 14:15:00,86.4,50.0,29.18,ENE,67,0.0,0.0,28,0.00,,,0.00,WeatherTracker,2013-06-09 19:15:00,
2013-06-09 14:20:00,86.4,50.0,29.18,ENE,67,0.0,0.0,28,0.00,,,0.00,WeatherTracker,2013-06-09 19:20:00,
2013-06-09 14:25:00,86.7,50.0,29.15,ENE,67,0.0,0.0,28,0.00,,,0.00,WeatherTracker,2013-06-09 19:25:00,
2013-06-09 14:30:00,87.1,50.0,29.15,ENE,67,0.0,0.0,28,0.00,,,0.00,WeatherTracker,2013-06-09 19:30:00,
2013-06-09 14:35:00,87.3,50.0,29.15,ENE,67,0.0,0.0,28,0.00,,,0.00,WeatherTracker,2013-06-09 19:35:00,
2013-06-09 14:40:00,87.3,50.0,29.15,ENE,67,0.0,0.0,28,0.00,,,0.00,WeatherTracker,2013-06-09 19:40:00,
2013-06-09 14:45:00,87.1,48.2,29.15,ENE,67,0.0,0.0,26,0.00,,,0.00,WeatherTracker,2013-06-09 19:45:00,
2013-06-09 14:50:00,87.1,50.0,29.15,ENE,67,0.0,0.0,27,0.00,,,0.00,WeatherTracker,2013-06-09 19:50:00,
2013-06-09 14:55:00,87.4,50.0,29.15,ENE,67,0.0,0.0,28,0.00,,,0.00,WeatherTracker,2013-06-09 19:55:00,
2013-06-09 15:00:00,87.8,51.8,29.15,ENE,67,0.0,0.0,28,0.00,,,0.00,WeatherTracker,2013-06-09 20:00:00,
2013-06-09 15:05:00,88.2,51.8,29.15,ENE,67,0.0,0.0,28,0.00,,,0.00,WeatherTracker,2013-06-09 20:05:00,
2013-06-09 15:10:00,88.2,50.0,29.12,ENE,67,0.0,0.0,27,0.00,,,0.00,WeatherTracker,2013-06-09 20:10:00,
2013-06-09 15:15:00,88.3,50.0,29.12,ENE,67,0.0,0.0,27,0.00,,,0.00,WeatherTracker,2013-06-09 20:15:00,
2013-06-09 15:25:00,88.5,50.0,29.12,ENE,67,0.0,0.0,26,0.00,,,0.00,WeatherTracker,2013-06-09 20:25:00,
2013-06-09 15:30:00,88.5,48.2,29.12,ENE,67,0.0,0.0,25,0.00,,,0.00,WeatherTracker,2013-06-09 20:30:00,
2013-06-09 15:35:00,88.5,48.2,29.12,ENE,67,0.0,0.0,25,0.00,,,0.00,WeatherTracker,2013-06-09 20:35:00,
2013-06-09 15:40:00,88.5,48.2,29.12,ENE,67,0.0,0.0,25,0.00,,,0.00,WeatherTracker,2013-06-09 20:40:00,
2013-06-09 15:45:00,88.7,48.2,29.12,ENE,67,0.0,0.0,25,0.00,,,0.00,WeatherTracker,2013-06-09 20:45:00,
2013-06-09 15:50:00,88.9,48.2,29.12,ENE,67,0.0,0.0,25,0.00,,,0.00,WeatherTracker,2013-06-09 20:50:00,
2013-06-09 15:55:00,88.9,48.2,29.09,ENE,67,0.0,0.0,25,0.00,,,0.00,WeatherTracker,2013-06-09 20:55:00,
2013-06-09 16:00:00,89.1,48.2,29.09,ENE,67,0.0,0.0,25,0.00,,,0.00,WeatherTracker,2013-06-09 21:00:00,
2013-06-09 16:10:00,89.2,48.2,29.09,ENE,67,0.0,0.0,24,0.00,,,0.00,WeatherTracker,2013-06-09 21:10:00,
2013-06-09 16:15:00,89.4,48.2,29.09,ENE,67,0.0,0.0,24,0.00,,,0.00,WeatherTracker,2013-06-09 21:15:00,
2013-06-09 16:20:00,89.4,48.2,29.09,ENE,67,0.0,0.0,24,0.00,,,0.00,WeatherTracker,2013-06-09 21:20:00,
2013-06-09 16:25:00,89.4,48.2,29.09,ENE,67,0.0,0.0,23,0.00,,,0.00,WeatherTracker,2013-06-09 21:25:00,
2013-06-09 16:30:00,89.4,48.2,29.09,ENE,67,0.0,0.0,23,0.00,,,0.00,WeatherTracker,2013-06-09 21:30:00,
2013-06-09 16:35:00,89.4,48.2,29.09,ENE,67,0.0,0.0,23,0.00,,,0.00,WeatherTracker,2013-06-09 21:35:00,
2013-06-09 16:40:00,89.6,48.2,29.12,ENE,67,0.0,0.0,23,0.00,,,0.00,WeatherTracker,2013-06-09 21:40:00,
2013-06-09 16:45:00,89.6,48.2,29.12,ENE,67,0.0,0.0,23,0.00,,,0.00,WeatherTracker,2013-06-09 21:45:00,
2013-06-09 16:50:00,89.4,48.2,29.12,ENE,67,0.0,0.0,23,0.00,,,0.00,WeatherTracker,2013-06-09 21:50:00,
2013-06-09 16:55:00,89.6,48.2,29.09,ENE,67,0.0,0.0,23,0.00,,,0.00,WeatherTracker,2013-06-09 21:55:00,
2013-06-09 17:00:00,89.6,48.2,29.09,ENE,67,0.0,0.0,23,0.00,,,0.00,WeatherTracker,2013-06-09 22:00:00,
2013-06-09 17:05:00,89.6,46.4,29.09,ENE,67,0.0,0.0,22,0.00,,,0.00,WeatherTracker,2013-06-09 22:05:00,
2013-06-09 17:10:00,89.6,46.4,29.12,ENE,67,0.0,0.0,22,0.00,,,0.00,WeatherTracker,2013-06-09 22:10:00,
2013-06-09 17:15:00,89.6,46.4,29.12,ENE,67,0.0,0.0,22,0.00,,,0.00,WeatherTracker,2013-06-09 22:15:00,
2013-06-09 17:20:00,89.6,46.4,29.12,ENE,67,0.0,0.0,22,0.00,,,0.00,WeatherTracker,2013-06-09 22:20:00,
2013-06-09 17:25:00,89.6,46.4,29.09,ENE,67,0.0,0.0,22,0.00,,,0.00,WeatherTracker,2013-06-09 22:25:00,
2013-06-09 17:30:00,89.1,46.4,29.09,ENE,67,0.0,0.0,23,0.00,,,0.00,WeatherTracker,2013-06-09 22:30:00,
2013-06-09 17:35:00,88.7,46.4,29.09,ENE,67,0.0,0.0,23,0.00,,,0.00,WeatherTracker,2013-06-09 22:35:00,
2013-06-09 17:40:00,88.3,46.4,29.09,ENE,67,0.0,0.0,23,0.00,,,0.00,WeatherTracker,2013-06-09 22:40:00,
2013-06-09 17:45:00,88.2,46.4,29.09,ENE,67,0.0,0.0,23,0.00,,,0.00,WeatherTracker,2013-06-09 22:45:00,
2013-06-09 17:50:00,88.2,48.2,29.09,ENE,67,0.0,0.0,24,0.00,,,0.00,WeatherTracker,2013-06-09 22:50:00,
2013-06-09 18:00:00,88.0,46.4,29.09,ENE,67,0.0,0.0,24,0.00,,,0.00,WeatherTracker,2013-06-09 23:00:00,